Simultaneous Nadir Overpasses (SNOs) Predictions

Prediction of SNOs between GOES-17 and LANDSAT-8 Satellite Orbit:

Table of predicted SNOs for the next 14.0 days since TLE Epoch: 7/21/2023
Index Date Time (GOES-17) GOES-17 Lat,Lon LANDSAT-8 Lat,Lon Distance(km) Time Diff (sec)
1 07/22/2023 05:15:32 0.00,-104.71 -0.19,-105.51 91.66 80
2 07/24/2023 05:00:43 0.00,-104.71 0.46,-102.56 243.90 80
3 07/24/2023 17:21:58 -0.00,-104.73 0.63,-107.72 340.36 80
4 07/26/2023 17:09:50 -0.00,-104.72 -0.03,-104.77 5.94 80
5 07/28/2023 17:00:20 -0.01,-104.72 -0.64,-101.82 330.15 80
6 07/29/2023 05:21:43 0.01,-104.70 -0.51,-107.00 262.43 80
7 07/31/2023 05:06:53 0.01,-104.68 0.12,-104.05 72.18 80
8 08/02/2023 04:54:43 0.00,-104.67 0.77,-101.09 406.92 80
9 08/02/2023 17:15:59 -0.01,-104.68 0.32,-106.25 178.21 80
